Change the Weather History Date:

Tuesday, November 20, 2012

  Actual Average Record
Temperature  
Mean Temperature 46 °F -  
Max Temperature 50 °F 45 °F 62 °F (2002)
Min Temperature 41 °F 37 °F 24 °F (1996)
Degree Days  
Heating Degree Days 20    
Moisture  
Dew Point 42 °F    
Average Humidity 84    
Maximum Humidity 93    
Minimum Humidity 71    
Precipitation  
Precipitation 0.12 in - - ()
Sea Level Pressure  
Sea Level Pressure 29.59 in    
Wind  
Wind Speed 11 mph ()    
Max Wind Speed 23 mph    
Max Gust Speed 32 mph    
Visibility 14.1 miles    
Events Rain    
Averages and records for this station are not official NWS values.
T = Trace of Precipitation, MM = Missing Value Source: Averaged Metar Reports

Daily Weather History Graph

Daily Weather History Graph

Search for Another Location

Airport or City:

Trip Planner

Search our weather history database for the weather conditions in past years. The results will help you decide how hot, cold, wet, or windy it might be!

Date:

Astronomy

Nov. 20, 2012 Rise Set
Actual Time 7:31 AM PST 4:25 PM PST
Civil Twilight 6:55 AM PST 5:00 PM PST
Nautical Twilight 6:16 AM PST 5:39 PM PST
Astronomical Twilight 5:39 AM PST 6:17 PM PST
Moon 12:49 PM PST (11/20) No Moon Set
Length of Visible Light 10h 04m
Length of Day
8h 53m
First Quarter, 52% of the Moon is Illuminated
Nov 20
First Quarter
Nov 28
Full
Dec 6
Last Quarter
Dec 13
New
Dec 19
First Quarter

Hourly Weather History & Observations

Time (PST) Temp. Windchill Dew Point Humidity Pressure Visibility Wind Dir Wind Speed Gust Speed Precip Events Conditions
12:00 AM 42.8 °F 37.5 °F 39.2 °F 87% 29.65 in 15.0 mi East 9.2 mph - N/A   Mostly Cloudy
1:00 AM 44.6 °F 39.2 °F 42.8 °F 93% 29.67 in 15.0 mi East 10.4 mph - N/A   Overcast
1:08 AM 44.6 °F 39.2 °F - N/A% - 12.0 mi East 10.4 mph - N/A Rain Light Rain
2:00 AM 44.6 °F 39.7 °F 42.8 °F 93% 29.67 in 12.0 mi East 9.2 mph - N/A Rain Light Rain
2:37 AM 44.6 °F 38.8 °F - N/A% - 15.0 mi East 11.5 mph - N/A   Mostly Cloudy
3:00 AM 44.6 °F 38.8 °F 42.8 °F 93% 29.67 in 15.0 mi East 11.5 mph - N/A   Overcast
3:17 AM 44.6 °F 38.4 °F - N/A% - 12.0 mi East 12.7 mph - N/A Rain Light Rain
4:00 AM 45 °F - 43 °F 91% 29.66 in 12 mi East 12.7 mph - - Rain Light Rain
4:00 AM 44.6 °F 38.8 °F 42.8 °F 93% 29.66 in 12.0 mi East 11.5 mph - N/A Rain Light Rain
4:47 AM 44.6 °F 38.4 °F - N/A% - 12.0 mi East 12.7 mph 18.4 mph N/A   Mostly Cloudy
5:00 AM 44.6 °F 37.2 °F 42.8 °F 93% 29.64 in 12.0 mi East 17.3 mph - N/A   Mostly Cloudy
5:34 AM 44.6 °F 39.2 °F - N/A% - 12.0 mi East 10.4 mph - N/A Rain Light Rain
6:00 AM 44.6 °F 38.8 °F 42.8 °F 93% 29.64 in 12.0 mi East 11.5 mph - N/A Rain Light Rain
6:22 AM 42.8 °F 37.0 °F - N/A% - 15.0 mi East 10.4 mph - N/A   Mostly Cloudy
7:00 AM 44.6 °F 40.2 °F 41.0 °F 87% 29.62 in 15.0 mi East 8.1 mph - N/A   Mostly Cloudy
8:00 AM 44.6 °F 39.2 °F 41.0 °F 87% 29.60 in 15.0 mi ESE 10.4 mph - N/A   Mostly Cloudy
9:00 AM 46.4 °F 41.1 °F 42.8 °F 87% 29.56 in 15.0 mi East 11.5 mph - N/A   Mostly Cloudy
10:00 AM 48 °F - 43 °F 75% 29.49 in 15 mi East 16.1 mph - -   Partly Cloudy
10:00 AM 48.2 °F - 42.8 °F 82% 29.49 in 15.0 mi East 17.3 mph - N/A   Overcast
11:00 AM 50.0 °F - 42.8 °F 76% 29.49 in 15.0 mi East 16.1 mph - N/A   Overcast
12:00 PM 46.4 °F 39.5 °F 41.0 °F 81% 29.47 in 15.0 mi East 17.3 mph 25.3 mph N/A   Overcast
12:04 PM 46.4 °F 38.7 °F - N/A% - 15.0 mi East 20.7 mph - N/A Rain Light Rain Showers
1:00 PM 48.2 °F - 42.8 °F 82% 29.46 in 15.0 mi ESE 20.7 mph 31.1 mph N/A Rain Light Rain Showers
1:21 PM 48.2 °F - - N/A% - 15.0 mi East 23.0 mph 29.9 mph N/A   Overcast
1:45 PM 50.0 °F - - N/A% - 15.0 mi ESE 23.0 mph 32.2 mph N/A Rain Light Rain Showers
2:00 PM 50.0 °F - 44.6 °F 82% 29.48 in 15.0 mi ESE 17.3 mph 25.3 mph N/A Rain Light Rain Showers
2:05 PM 50.0 °F - - N/A% - 15.0 mi ESE 21.9 mph 29.9 mph N/A   Mostly Cloudy
2:33 PM 50.0 °F - - N/A% - 15.0 mi SSE 23.0 mph 31.1 mph N/A Rain Light Rain Showers
3:00 PM 50.0 °F - 44.6 °F 82% 29.52 in 15.0 mi SE 15.0 mph - N/A Rain Light Rain Showers
3:21 PM 50.0 °F - - N/A% - 15.0 mi SE 15.0 mph 20.7 mph N/A   Scattered Clouds
4:00 PM 49 °F - 45 °F 81% 29.55 in 15 mi SE 12.7 mph - - Rain Light Rain Showers
4:00 PM 50.0 °F - 44.6 °F 82% 29.55 in 15.0 mi SE 12.7 mph - N/A   Partly Cloudy
5:00 PM 48.2 °F - 41.0 °F 76% 29.58 in 15.0 mi SE 8.1 mph - N/A   Mostly Cloudy
6:00 PM 48.2 °F - 39.2 °F 71% 29.59 in 15.0 mi South 6.9 mph - N/A   Overcast
6:01 PM 48.2 °F - - N/A% - 12.0 mi South 5.8 mph - N/A Rain Light Rain Showers
7:00 PM 44.6 °F 37.4 °F 39.2 °F 81% 29.62 in 6.0 mi SW 16.1 mph - N/A Rain Rain
8:00 PM 44.6 °F 39.2 °F 39.2 °F 81% 29.61 in 15.0 mi South 10.4 mph - N/A Rain Light Rain Showers
8:28 PM 44.6 °F 40.7 °F - N/A% - 15.0 mi South 6.9 mph - N/A   Mostly Cloudy
9:00 PM 46.4 °F 41.5 °F 39.2 °F 76% 29.64 in 15.0 mi SSW 10.4 mph - N/A   Overcast
10:00 PM 44 °F - 40 °F 79% 29.64 in 15 mi East 4.6 mph - -   Partly Cloudy
10:00 PM 44.6 °F 42.2 °F 39.2 °F 81% 29.64 in 15.0 mi East 4.6 mph - N/A   Overcast
10:25 PM 44.6 °F 41.4 °F - N/A% - 15.0 mi East 5.8 mph - N/A Rain Light Rain Showers
11:00 PM 42.8 °F 37.0 °F 41.0 °F 93% 29.64 in 15.0 mi ESE 10.4 mph - N/A Rain Light Rain Showers